Home > Weather > Palm Springs > Past weeks

Flag for USA Weather for the Past 2 Weeks in Palm Springs, California, USA

Now
64 °F

Scattered clouds.


Feels Like: 64 °F
Forecast: 62 / 80 °F
Wind: 12 mph from West

Location: Palm Springs Regional Airport

Current Time: May 5, 2016 at 7:24:20 AM

Latest Report: May 5, 2016 at 6:53 AM


Visibility: 10 mi

Pressure: 29.77 "Hg

Humidity: 52%

Dew Point: 46 °F

Location of Palm SpringsLocation

Historic Weather in Palm Springs — Graph

°F

Palm Springs Temperature Yesterday

Maximum temperature yesterday: 97 °F (at 1:53 PM)
Minimum temperature yesterday: 69 °F (at 5:53 AM)
Average temperature yesterday: 83 °F

High & Low Weather Summary for the Past Weeks

 TemperatureHumidityPressure
High98 °F (Apr 20, 3:53 PM)74% (Apr 26, 5:53 AM)30.00 "Hg (Apr 26, 5:53 AM)
Low51 °F (Apr 26, 5:53 AM)5% (Apr 20, 12:53 PM)29.61 "Hg (Apr 27, 5:53 PM)
Average75 °F30%29.81 "Hg
* Reported Apr 20 5:53 AM — May 5 5:53 AM, Palm Springs, Weather by CustomWeather, © 2016

Note: Actual official high and low records may vary slightly from our data, if they occured in-between our weather recording intervals... More about our weather records

Advertising

Palm Springs Weather History for the Previous 24 Hours

Scroll right to see more
 ConditionsComfort  
Time TempWeatherWind HumidityBarometerVisibility
5:53 AM
Thu, May 5
66 °FClear.13 mph49%29.75 "Hg10 mi
4:53 AM66 °FClear.8 mph49%29.74 "Hg10 mi
3:53 AM67 °FClear.10 mph47%29.73 "Hg10 mi
2:53 AM70 °FClear.10 mph41%29.72 "Hg10 mi
1:53 AM71 °FClear.7 mph38%29.71 "Hg10 mi
12:53 AM72 °FClear.12 mph38%29.73 "Hg10 mi
11:53 PM
Wed, May 4
73 °FClear.13 mph37%29.74 "Hg10 mi
10:53 PM74 °FClear.16 mph37%29.74 "Hg10 mi
9:53 PM76 °FClear.20 mph35%29.74 "Hg10 mi
8:53 PM78 °FClear.22 mph33%29.73 "Hg10 mi
7:53 PM83 °FScattered clouds.22 mph27%29.71 "Hg10 mi
6:53 PM87 °FScattered clouds.23 mph21%29.70 "Hg10 mi
5:53 PM90 °FScattered clouds.23 mph18%29.69 "Hg10 mi
4:53 PM95 °FScattered clouds.21 mph15%29.69 "Hg10 mi
3:53 PM97 °FScattered clouds.9 mph11%29.71 "Hg10 mi
2:53 PM97 °FSunny.17 mph10%29.74 "Hg10 mi
1:53 PM97 °FSunny.15 mph11%29.77 "Hg10 mi
12:53 PM95 °FSunny.13 mph13%29.79 "Hg10 mi
11:53 AM93 °FSunny.10 mph14%29.81 "Hg10 mi
10:53 AM91 °FSunny.6 mph13%29.83 "Hg10 mi
9:53 AM86 °FSunny.No wind18%29.84 "Hg10 mi
8:53 AM82 °FSunny.No wind22%29.85 "Hg10 mi
7:53 AM77 °FSunny.No wind28%29.85 "Hg10 mi
Weather by CustomWeather, © 2016

See weather overviewHow to use our weather pages